Weather History for KABY - November, 2011

Change the Weather History Date:

Sunday, November 13, 2011

  Actual Average Record
Temperature  
Mean Temperature 56 °F 59 °F  
Max Temperature 75 °F 72 °F 86 °F (1986)
Min Temperature 37 °F 46 °F 23 °F (1968)
Degree Days  
Heating Degree Days 9 6  
Month to date heating degree days 68  
Since 1 July heating degree days 118  
Cooling Degree Days 0 1  
Month to date cooling degree days 19  
Year to date cooling degree days 2522  
Growing Degree Days 6 (Base 50)    
Moisture  
Dew Point 43 °F    
Average Humidity 61    
Maximum Humidity 80    
Minimum Humidity 35    
Precipitation  
Precipitation 0.00 in - 0.04 in (2008)
Sea Level Pressure  
Sea Level Pressure 30.23 in    
Wind  
Wind Speed 2 mph (South)    
Max Wind Speed 10 mph    
Max Gust Speed 16 mph    
Visibility 10 miles    
Events      
T = Trace of Precipitation, MM = Missing Value Source: NWS Daily Summary

Daily Weather History Graph

Daily Weather History Graph

Search for Another Location

Airport or City:

Trip Planner

Search our weather history database for the weather conditions in past years. The results will help you decide how hot, cold, wet, or windy it might be!

Date:

Astronomy

Nov. 13, 2011 Rise Set
Actual Time 7:02 AM EST 5:39 PM EST
Civil Twilight 6:36 AM EST 6:04 PM EST
Nautical Twilight 6:07 AM EST 6:33 PM EST
Astronomical Twilight 5:38 AM EST 7:02 PM EST
Moon 7:53 PM EST (11/13) 9:28 AM EST (11/13)
Length of Visible Light 11h 27m
Length of Day
10h 36m
Waning Gibbous, 93% of the Moon is Illuminated
Nov 13
Waning Gibbous
Nov 18
Last Quarter
Nov 25
New
Dec 2
First Quarter
Dec 10
Full

Hourly Weather History & Observations

Time (EST) Temp. Windchill Dew Point Humidity Pressure Visibility Wind Dir Wind Speed Gust Speed Precip Events Conditions
12:53 AM 39.9 °F - 30.0 °F 68% 30.27 in 10.0 mi Calm Calm - N/A   Clear
1:53 AM 37.9 °F - 30.0 °F 73% 30.26 in 10.0 mi Calm Calm - N/A   Clear
2:53 AM 39.0 °F - 30.9 °F 73% 30.25 in 10.0 mi Calm Calm - N/A   Clear
3:53 AM 42.1 °F - 33.1 °F 70% 30.26 in 10.0 mi Calm Calm - N/A   Clear
4:53 AM 42.1 °F - 34.0 °F 73% 30.25 in 10.0 mi Calm Calm - N/A   Clear
5:53 AM 42.1 °F - 34.0 °F 73% 30.26 in 10.0 mi Calm Calm - N/A   Clear
6:53 AM 41.0 °F 39.0 °F 35.1 °F 79% 30.26 in 10.0 mi NW 3.5 mph - N/A   Clear
7:53 AM 44.1 °F - 37.0 °F 76% 30.28 in 10.0 mi Calm Calm - N/A   Clear
8:53 AM 55.0 °F - 44.1 °F 67% 30.30 in 10.0 mi Calm Calm - N/A   Clear
9:53 AM 61.0 °F - 48.0 °F 62% 30.30 in 10.0 mi South 6.9 mph - N/A   Clear
10:53 AM 66.9 °F - 51.1 °F 57% 30.30 in 10.0 mi South 5.8 mph - N/A   Clear
11:53 AM 70.0 °F - 52.0 °F 53% 30.28 in 10.0 mi South 4.6 mph - N/A   Clear
11:54 AM 69.8 °F - 51.8 °F 53% 30.28 in 10.0 mi South 5.8 mph - N/A   Scattered Clouds
12:53 PM 73.0 °F - 51.1 °F 46% 30.25 in 10.0 mi West 8.1 mph 16.1 mph N/A   Mostly Cloudy
1:53 PM 73.9 °F - 50.0 °F 43% 30.21 in 10.0 mi South 10.4 mph - N/A   Mostly Cloudy
2:53 PM 75.0 °F - 48.0 °F 38% 30.17 in 10.0 mi Variable 5.8 mph - N/A   Clear
3:53 PM 75.9 °F - 46.0 °F 35% 30.17 in 10.0 mi South 8.1 mph - N/A   Clear
4:53 PM 73.0 °F - 46.0 °F 38% 30.17 in 10.0 mi South 6.9 mph - N/A   Clear
5:53 PM 66.9 °F - 46.0 °F 47% 30.17 in 10.0 mi SE 5.8 mph - N/A   Clear
6:53 PM 63.0 °F - 45.0 °F 52% 30.17 in 10.0 mi ESE 3.5 mph - N/A   Clear
7:53 PM 60.1 °F - 46.0 °F 60% 30.18 in 10.0 mi SSE 4.6 mph - N/A   Clear
8:53 PM 60.1 °F - 46.9 °F 62% 30.18 in 10.0 mi South 4.6 mph - N/A   Clear
9:53 PM 55.9 °F - 46.9 °F 72% 30.19 in 10.0 mi Calm Calm - N/A   Clear
10:53 PM 53.1 °F - 46.9 °F 80% 30.19 in 10.0 mi South 3.5 mph - N/A   Clear
11:53 PM 53.1 °F - 46.9 °F 80% 30.17 in 10.0 mi Calm Calm - N/A   Clear